[Iaude] MPEC G197: 2024 GM5 [a=0.93,e=0.20,i=3.6,H=27.8]

mpec at cfa.harvard.edu mpec at cfa.harvard.edu
Sun Apr 14 01:37:56 EDT 2024


M.P.E.C. 2024-G197                               Issued 2024 April 14, 05:36 UT

     The Minor Planet Electronic Circulars contain information on unusual
         minor planets, routine data on comets and natural satellites,
         and occasional editorial announcements.  They are published
    on behalf of Division F of the International Astronomical Union by the
          Minor Planet Center, Smithsonian Astrophysical Observatory,
                          Cambridge, MA 02138, U.S.A.
			  
             Prepared using the Tamkin Foundation Computer Network

                              MPC at CFA.HARVARD.EDU
            URL https://www.minorplanetcenter.net/    ISSN 1523-6714

                                    2024 GM5                                    


Observations:
     K24G05M*1C2024 04 12.36793513 51 48.035+04 17 22.24         19.94GVEG197G96
     K24G05M 1C2024 04 12.37311313 51 43.808+04 18 02.05         20.29GVEG197G96
     K24G05M 1C2024 04 12.37828313 51 39.600+04 18 41.69               VEG197G96
     K24G05M 1C2024 04 12.38344313 51 35.338+04 19 21.43         20.46GVEG197G96
     K24G05M  C2024 04 12.40495013 51 16.978+04 21 56.20         20.2 GVEG197H01
     K24G05M  C2024 04 12.40898613 51 13.758+04 22 26.75         20.2 GVEG197H01
     K24G05M  C2024 04 12.41907913 51 05.774+04 23 43.18         20.4 GVEG197H01
     K24G05M  C2024 04 12.42661613 50 59.847+04 24 40.33         20.2 GVEG197H01
     K24G05M mC2024 04 12.46204613 50 33.079+04 29 15.22         20.94GVEG197I52
     K24G05M mC2024 04 12.46253913 50 32.698+04 29 19.10         20.32GVEG197I52
     K24G05M mC2024 04 12.46303913 50 32.320+04 29 22.52         20.91GVEG197I52
     K24G05M mC2024 04 12.46354313 50 31.942+04 29 26.63         20.60GVEG197I52
     K24G05M 1C2024 04 12.91912 13 45 57.71 +05 22 43.2          20.4 VXEG197033
     K24G05M 1C2024 04 12.92017 13 45 56.97 +05 22 50.7          20.1 VXEG197033
     K24G05M 1C2024 04 12.92121 13 45 56.22 +05 22 57.9          20.2 VXEG197033
     K24G05M 1C2024 04 12.92226 13 45 55.53 +05 23 05.0          20.1 VXEG197033
     K24G05M KB2024 04 12.92244013 45 59.16 +05 23 33.4          20.1 GXEG197I93
     K24G05M KB2024 04 12.92685513 45 56.03 +05 24 03.8          20.0 GXEG197I93
     K24G05M KB2024 04 12.93109913 45 52.99 +05 24 33.2          20.5 GXEG197I93
     K24G05M 1C2024 04 12.97417 13 45 18.73 +05 29 00.5          21.3 VXEG197033
     K24G05M 1C2024 04 12.97492 13 45 18.20 +05 29 05.4          20.7 VXEG197033
     K24G05M 1C2024 04 12.97568 13 45 17.66 +05 29 10.4          21.0 VXEG197033
     K24G05M KB2024 04 12.99762613 45 05.77 +05 32 11.2          20.2 GXEG197958
     K24G05M KB2024 04 13.00232113 45 02.34 +05 32 44.0          20.5 GXEG197958
     K24G05M KB2024 04 13.00706213 44 59.01 +05 33 15.5          20.4 GXEG197958
     K24G05M KB2024 04 13.02784 13 44 41.43 +05 35 23.8          20.4 GVEG197204
     K24G05M KB2024 04 13.04582 13 44 28.80 +05 37 22.9                VEG197204
     K24G05M KC2024 04 13.19917213 43 09.29 +05 54 38.6          20.8 GVEG197H21
     K24G05M KC2024 04 13.20476513 43 05.45 +05 55 15.1          20.6 GVEG197H21
     K24G05M mC2024 04 13.23926413 42 48.940+05 59 30.00         20.34GVEG197I52
     K24G05M mC2024 04 13.23985013 42 48.490+05 59 32.50               VEG197I52
     K24G05M KC2024 04 14.20702813 34 09.09 +07 32 11.5          20.8 GVEG197H21
     K24G05M KC2024 04 14.21262613 34 05.81 +07 32 40.9          20.8 GVEG197H21
     K24G05M KC2024 04 14.21542313 34 04.15 +07 32 55.9          21.1 GVEG197H21

Observer details:
033 Karl Schwarzschild Observatory, Tautenburg.  Observers S. Melnikov, C.
    Hogner, F. Ludwig, M. Hartmann, B. Stecklum.  Measurer B. Stecklum.
    1.34-m f/3 Schmidt + CCD.
204 Schiaparelli Observatory.  Observer L. Buzzi.  0.84-m f/3.5 reflector +
    CMO.
958 Observatoire de Dax.  Observer P. Dupouy.  0.50-m f/4.5 Reflector + CMO.
G96 Mt. Lemmon Survey.  Observer H. Groeller.  Measurers T. Beuden, V. F.
    Carvajal, D. Fay, J. B. Fazekas, D. C. Fuls, A. R. Gibbs, A. D. Grauer, H.
    Groeller, J. K. Hogan, R. A. Kowalski, S. M. Larson, G. J. Leonard, D.
    Rankin, R. L. Seaman, F. C. Shelly, K. W. Wierzchos.  1.5-m reflector +
    10K CCD.
H01 Magdalena Ridge Observatory, Socorro.  Observers W. H. Ryan, E. V. Ryan.
    Measurer W. H. Ryan.  2.4-m f/8.9 Ritchey-Chretien + CCD.
H21 Astronomical Research Observatory, Westfield.  Observer R. Holmes.
    Measurers T. Linder, R. Holmes, L. Horn.  0.76-m f/3.0 astrograph + CCD.
I52 Steward Observatory, Mt. Lemmon Station.  Observers V. F. Carvajal, D.
    Rankin.  Measurers T. Beuden, V. F. Carvajal, D. Fay, J. B. Fazekas, D. C.
    Fuls, A. R. Gibbs, A. D. Grauer, H. Groeller, J. K. Hogan, R. A. Kowalski,
    S. M. Larson, G. J. Leonard, D. Rankin, R. L. Seaman, F. C. Shelly, K. W.
    Wierzchos.  1.0-m prime focus + CCD.
I93 St Pardon de Conques.  Observer F. Losse.  0.40-m f/3.7 reflector + CCD.

Orbital elements:
2024 GM5                                                 Earth MOID = 0.0029 AU
Epoch 2024 Mar. 31.0 TT = JDT 2460400.5                 MPC                     
M  98.27223              (2000.0)            P               Q                  
n   1.09800654     Peri.  234.70524     +0.30835922     -0.95108070             
a   0.9305351      Node   197.36407     +0.89211650     +0.29605136             
e   0.1958455      Incl.    3.64552     +0.33021621     +0.08831246             
P   0.90           H   27.82          G   0.15           U   6                  
Residuals in seconds of arc
240412 G96  0.1+  0.0     240412 033  0.2+  0.4-    240413 958  0.7+  0.4+
240412 G96  0.4+  0.0     240412 033  0.2+  0.1-    240413 204  0.0   0.1+
240412 G96  0.8+  0.1-    240412 033  0.0   0.1-    240413 204  0.2+  0.2-
240412 G96  0.0   0.1+    240412 033  0.8+  0.3-    240413 H21  0.3-  0.1-
240412 H01  0.0   0.1+    240412 I93  0.2+  0.4+    240413 H21  0.2+  0.0
240412 H01  0.1-  0.0     240412 I93  0.2+  0.3+    240413 I52  0.1-  0.0
240412 H01  0.0   0.0     240412 I93  0.2-  0.3+    240413 I52  0.8-  1.3-
240412 H01  0.0   0.2+    240412 033  0.1-  0.2+    240414 H21  0.2+  0.0
240412 I52  0.1-  0.2-    240412 033  0.1-  0.0     240414 H21  0.1+  0.1-
240412 I52  0.1-  0.0     240412 033  0.2-  0.2-    240414 H21  0.3-  0.2+
240412 I52  0.1-  0.3-    240412 958  0.7+  0.3-
240412 I52  0.0   0.1+    240413 958  0.3-  0.8+

Ephemeris:
2024 GM5                 a,e,i = 0.93, 0.20, 4                   q = 0.7483
Date    TT    R. A. (2000) Decl.     Delta      r    Elong.  Phase     V
2024 03 15    23 32 47.2 -25 34 09   0.06331 0.9367    23.5   155.0    31.2
...
2024 03 30    21 48 38.9 -35 15 20   0.02168 0.9864    55.1   123.9    24.6
...
2024 04 07    15 55 14.4 -17 55 40   0.01303 1.0105   136.8    42.7    20.1
...
2024 04 13    13 45 02.8 +05 35 56   0.02532 1.0271   164.6    15.0    20.7
2024 04 14    13 35 47.9 +07 16 32   0.02795 1.0298   163.3    16.3    21.0
2024 04 15    13 28 06.6 +08 38 20   0.03064 1.0324   161.6    17.9    21.3
...
2024 04 21    13 00 51.2 +13 06 53   0.04771 1.0471   151.6    27.2    22.5
...
2024 04 29    12 46 41.2 +14 56 19   0.07195 1.0644   141.7    35.9    23.7
...
2024 05 14    12 42 58.7 +14 27 45   0.1205  1.0896   128.4    46.6    25.2

A. U. Tomatic                (C) Copyright 2024 MPC           M.P.E.C. 2024-G197





More information about the Iaude mailing list